Daniel Osorio

Olheiro-Chefe - Mineros de Guayana
13 Nov 2027
Sábado
Processo

Personalidade

Adaptabilidade (13) Ambição (13) Controvérsia (1) Lealdade (19) Pressão (18) Profissionalismo (8) Espírito Esportivo (15) Temperamento (10)

Perfil

Estilo de Treinamento Democrático
Licença Continental A
Determinação 3
Gestão de Pessoas 6
Motivação 11
Disciplina 10
Satisfação no Trabalho
100%
Fadiga
0%
Função Olheiro-Chefe
Salário 46.7K p/s
Contrato 14.03.2028

Desempenho

Comportamento Bom
Eficácia do Treinamento
35%
Desenvolvimento do Jogador
50%
Prevenção de Lesões
35%
Implementação Tática
50%

Eventos Recentes

Participou de uma reunião de recrutamento agora
Participou de uma reunião de recrutamento agora
Participou de uma reunião de recrutamento 7d atrás
Participou de uma reunião de recrutamento 7d atrás
Participou de uma reunião de recrutamento 7d atrás
Participou de uma reunião de recrutamento 7d atrás
Aniversário 7d atrás
Participou de uma reunião de recrutamento 14d atrás

Monitorando agora

107
Jogador Clube Status Habilidade Confiança Observado Última observação Último voto
Eliás Ajam Estudiantes de Merida Ativo 93 / 81 55% 1 12.07.2027 -
Richard Figueroa Deportivo Lara Ativo 100 / 111 40% 1 02.06.2027 -
Ekain Orobengoa Real Sociedad Ativo 111 / 90 40% 6 31.05.2027 -
Dilan Ortíz Ufa Ativo 107 / 84 40% 4 31.05.2027 -
Vladimir Khubulov Dinamo Makhachkala Ativo 96 / 115 40% 5 30.05.2027 -
Kamran Aliev SKA Khabarovsk Ativo 92 / 96 40% 3 28.05.2027 -
Xavier Biscayzacú Sporting CP Ativo 123 / 120 40% 6 25.05.2027 -
Thalys Almería Ativo 136 / 121 40% 2 23.05.2027 -
Mauricio Márquez Caracas Ativo 109 / 93 40% 4 22.05.2027 -
José Balza Deportivo Tachira Ativo 120 / 116 40% 1 22.05.2027 Mais informações
Anderson Pafos Ativo 106 / 115 40% 1 21.05.2027 -
Ichem Ferrah Pisa Ativo 126 / 106 40% 1 20.05.2027 -
Clemente Montes Universidad Catolica Ativo 113 / 121 40% 1 20.05.2027 -
Brayan Gil Baltika Ativo 139 / 134 40% 2 19.05.2027 -
Oscar Osorio Atletico Venezuela Ativo 110 / 103 40% 4 16.05.2027 -
Lucio Castillo Colegiales Ativo 112 / 105 40% 4 16.05.2027 -
Eric Ramírez Carabobo Ativo 106 / 102 40% 2 15.05.2027 -
Jonathan Okoronkwo Torpedo Moscow Ativo 107 / 105 40% 3 15.05.2027 -
Miguel Falé Pacos de Ferreira Ativo 89 / 104 40% 3 14.05.2027 -
Adalberto Peñaranda Deportivo Tachira Ativo 128 / 112 40% 6 13.05.2027 -
Junior Paredes Trujillanos Ativo 98 / 106 40% 1 11.05.2027 -
Slobodan Tedić Akron Ativo 119 / 104 40% 3 09.05.2027 -
Jalen Blesa Rio Ave Ativo 107 / 107 40% 4 09.05.2027 -
Luca Franco Arsenal Ativo 108 / 110 40% 1 06.05.2027 -
Luifer Hernández Puebla Ativo 109 / 93 40% 3 04.05.2027 -
Naoufal Bannis Vitesse Ativo 122 / 113 40% 1 02.05.2027 -
Eugenio Olivera Talleres Ativo 107 / 94 40% 1 01.05.2027 -
Oscar Ferraresi Llaneros Ativo 124 / 119 40% 2 30.04.2027 -
Luka Reischl ADO Den Haag Ativo 122 / 109 40% 1 30.04.2027 -
Ilja Safronov Rotor Ativo 112 / 94 40% 4 27.04.2027 -
Valentín Quevedo Colegiales Ativo 105 / 106 40% 1 26.04.2027 -
Rafiki Saïd Wolverhampton Ativo 133 / 122 40% 1 19.04.2027 -
Joel Orlando Real Sociedad Ativo 119 / 109 40% 1 19.04.2027 -
Job Ochieng Real Sociedad Ativo 89 / 108 40% 3 18.04.2027 -
Edarlyn Reyes Arsenal Tula Ativo 123 / 119 40% 5 16.04.2027 -
Rob Street Lincoln City Ativo 123 / 91 40% 1 15.04.2027 -
Yeangel Montero Naxxar Lions Ativo 89 / 87 40% 4 14.04.2027 -
Kenan Dervišagić Floriana Ativo 103 / 106 40% 1 12.04.2027 -
Paul Mbong Floriana Ativo 103 / 107 40% 4 09.04.2027 -
Agustín Hausch Caracas Ativo 124 / 126 40% 1 07.04.2027 -
Vladislav Sarveli Nizhniy Novgorod Ativo 96 / 107 40% 6 05.04.2027 -
Santiago Apa All Boys Ativo 119 / 115 40% 1 04.04.2027 -
Elias Manoel Tijuana Ativo 120 / 125 40% 1 29.03.2027 -
Bahlul Mammadov Inter Ativo 108 / 124 40% 4 27.03.2027 -
Mikhail Ignatov Sochi Ativo 98 / 130 40% 1 25.03.2027 -
Gamid Agalarov Dinamo Makhachkala Ativo 122 / 95 40% 2 18.03.2027 -
Elías Torres Racing Club Ativo 118 / 130 40% 1 28.02.2027 -
Maksim Samorodov Akhmat Grozny Ativo 110 / 116 40% 2 24.02.2027 -
Chinonso Offor Baltika Ativo 91 / 123 40% 3 19.02.2027 -
Denzel Jubitana Neftchi Ativo 119 / 123 40% 2 17.02.2027 -
Vyacheslav Grulev Nizhniy Novgorod Ativo 123 / 106 40% 3 16.02.2027 -
Nahuel Cáceres Alavés Ativo 88 / 112 40% 1 15.02.2027 -
Alexandr Saplinov Volga Ativo 90 / 92 40% 1 13.02.2027 -
Aaron Drinan Swindon Town Ativo 88 / 111 40% 2 12.02.2027 -
Georgy Melkadze Akhmat Grozny Ativo 101 / 122 40% 1 10.02.2027 -
Lautaro Gutiérrez Girona Ativo 116 / 99 40% 2 07.02.2027 -
Franco García Ferro Carril Oeste Ativo 107 / 112 40% 1 01.02.2027 -
Lucas Besozzi Lanús Ativo 111 / 117 40% 3 20.01.2027 -
Jakub Bednarczyk Gornik Leczna Ativo 117 / 123 40% 1 19.01.2027 -
Tenton Yenne Baltika Ativo 91 / 111 40% 2 16.01.2027 -
Eren Aydın Zira Ativo 120 / 119 40% 1 13.01.2027 -
Bojan Radulović Huddersfield Town Ativo 126 / 115 40% 1 27.11.2026 Mais informações
Patrick Schmidt Tarxien Rainbows Ativo 82 / 96 40% 1 26.11.2026 -
Manu Nieto Andorra Ativo 102 / 111 40% 3 23.11.2026 -
Alexei Dominguez Pachuca Ativo 90 / 104 40% 2 22.11.2026 -
Ľubomír Tupta Neftchi Ativo 123 / 128 40% 1 21.11.2026 -
Isaac Matondo Koper Ativo 119 / 123 40% 1 18.11.2026 -
Manprit Sarkaria Austria Wien Negociando 121 / 98 40% 1 16.11.2026 Mais informações
Matty Stevens AFC Wimbledon Ativo 88 / 102 40% 1 16.11.2026 -
Marcelo Torres Gimnasia La Plata Ativo 110 / 114 40% 8 06.11.2026 -
Sandi Elsnik NK Domzale Ativo 114 / 120 40% 2 05.11.2026 -
Davit Volkovi Zira Ativo 107 / 106 40% 1 01.11.2026 -
Tomás Chancalay Minnesota United FC Ativo 112 / 136 40% 1 30.10.2026 -
Gonzalo Tapia Palestino Ativo 108 / 101 40% 3 14.10.2026 -
Thiago Ponce Rosario Central Ativo 95 / 106 40% 2 11.10.2026 -
Jonathan Cañete Portuguesa Ativo 117 / 102 40% 1 11.10.2026 -
Tio Cipot NK Maribor Ativo 115 / 131 40% 1 10.10.2026 -
Jeriel De Santis Caracas Ativo 113 / 110 40% 1 10.10.2026 -
Lucas González Nacional Ativo 103 / 107 40% 2 09.10.2026 -
Stephen Humphrys Bradford City Ativo 108 / 114 40% 2 05.10.2026 -
César Magallan Estudiantes de Merida Ativo 111 / 120 40% 8 02.10.2026 -
Abdoul Kialy Koné Ceuta Ativo 111 / 83 40% 1 02.10.2026 -
Brian Blando Agropecuario Argentino Ativo 104 / 116 40% 2 28.09.2026 -
Enzo Larrosa Independiente Medellin Ativo 104 / 110 40% 2 24.09.2026 -
Genaro Rossi San Martín SJ Ativo 109 / 108 40% 1 24.09.2026 -
Agustín Páez Maipú Ativo 92 / 90 40% 1 19.09.2026 -
Juan Cruz Zurbriggen San Telmo Ativo 94 / 89 40% 2 16.09.2026 -
Ignacio Sabatini Gimnasia y Esgrima Ativo 98 / 105 40% 3 13.09.2026 -
Tomás Romero Unión de Santa Fe Ativo 106 / 95 40% 1 12.09.2026 -
Rodrigo Pollero Deportivo Tachira Ativo 105 / 106 40% 1 04.09.2026 -
Exon Arzú Carabobo Ativo 85 / 112 40% 1 03.09.2026 -
José Barragán Zamora Ativo 91 / 101 40% 1 01.09.2026 -
Ljupce Doriev Sogdiana Ativo 116 / 117 40% 1 31.08.2026 -
Gonzalo Córdoba Mitre Ativo 101 / 104 40% 2 30.08.2026 -
Marcos Camarda Santiago Wanderers Ativo 98 / 113 40% 1 28.08.2026 -
Marco Bustillo Zamora Ativo 95 / 110 40% 1 27.08.2026 -
Ángel Stringa Deportivo Riestra Ativo 105 / 93 40% 1 27.08.2026 -
Tiago Benzi Belgrano Ativo 101 / 94 40% 1 25.08.2026 -
Sergio Díaz Barcelona Ativo 83 / 90 40% 1 24.08.2026 -
Fabricio Rojas Gimnasia y Tiro Ativo 120 / 99 40% 2 20.08.2026 -
José Rivas Gamboa Trujillanos Ativo 108 / 103 40% 2 19.08.2026 -
Ramiro Ruiz Rodríguez Atlético Tucumán Ativo 121 / 128 40% 1 17.08.2026 -
Joshuan Berríos Carabobo Ativo 88 / 97 40% 1 11.08.2026 -
Francisco Galván Deportivo Municipal Ativo 97 / 109 40% 2 10.08.2026 -
Diego Mercado San Martín SJ Ativo 114 / 116 40% 1 03.08.2026 -
Juan Galetto Gimnasia y Tiro Ativo 103 / 103 40% 1 03.08.2026 -
Franco Rivasseau Patronato Ativo 99 / 99 40% 1 02.08.2026 -